Flag for Cayman Islands Weather past 2 weeks in George Town, Cayman Islands

Now
77 °F

Partly sunny.


Feels Like: 79 °F
Forecast: 77 / 79 °F
Wind: 15 mph from East

Location: Owen Roberts Airportgrand Cayman

Current Time: Mar 30, 2015 at 8:09:55 AM

Latest Report: Mar 30, 2015 at 7:00 AM


Visibility: N/A

Pressure: 30.07 "Hg

Humidity: 79%

Dew point: 70 °F

Location of George TownLocation

Historic Weather in George Town — Graph

°F

George Town temperature yesterday

Maximum temperature yesterday: 86 °F (at 12:00 PM)
Minimum temperature yesterday: 75 °F (at 3:00 PM)
Average temperature yesterday: 80 °F

Past Weeks' High & Low Weather Summary

 TemperatureHumidityPressure
High88 °F (Mar 26, 1:00 PM)100% (Mar 20, 6:00 AM)30.12 "Hg (Mar 20, 6:00 AM)
Low68 °F (Mar 25, 5:52 AM)49% (Mar 24, 3:53 PM)29.95 "Hg (Mar 18, 2:00 PM)
Average81 °F76%30.03 "Hg
* Reported Mar 15 7:00 AM — Mar 30 7:00 AM, George Town, Weather by CustomWeather, © 2015

Note: Actual official high and low records may vary slightly from our data, if they occured in-between our weather recording intervals... More about our weather records

Advertising

George Town weather history for previous 24 hours

 ConditionsComfort  
Time TempWeatherWind HumidityBarometerVisibility
7:00 AM
Mon, Mar 30
77 °FPartly sunny.15 mph79%30.07 "HgN/A
6:00 AM77 °FPassing clouds.16 mph79%30.07 "HgN/A
10:00 PM
Sun, Mar 29
79 °FPassing clouds.17 mph74%30.12 "HgN/A
9:00 PM79 °FPassing clouds.20 mph74%30.09 "HgN/A
8:00 PM79 °FPassing clouds.18 mph79%30.09 "HgN/A
7:00 PM77 °FOvercast.17 mph83%30.07 "HgN/A
6:00 PM75 °FLight rain. Overcast.20 mph94%30.07 "HgN/A
5:00 PM75 °FLight rain. Overcast.15 mph94%30.07 "Hg4 mi
4:00 PM75 °FHeavy rain. Overcast.16 mph94%30.07 "Hg1 mi
3:00 PM75 °FLots of rain. Partly sunny.20 mph100%30.09 "Hg1 mi
2:00 PM79 °FScattered showers. Partly sunny.16 mph89%30.07 "Hg4 mi
1:00 PM86 °FPartly sunny.14 mph66%30.09 "HgN/A
12:00 PM86 °FScattered clouds.15 mph66%30.12 "HgN/A
11:00 AM84 °FScattered clouds.16 mph70%30.12 "HgN/A
10:00 AM84 °FPartly sunny.14 mph70%30.12 "HgN/A
9:00 AM82 °FPassing clouds.15 mph74%30.09 "HgN/A
8:00 AM81 °FPassing clouds.15 mph79%30.09 "HgN/A
Weather by CustomWeather, © 2015

See weather overviewHow to use our weather pages